Change the Weather History Date:

Wednesday, January 16, 2013

  Actual Average (KMRF) Record (KMRF)
Temperature  
Mean Temperature 34 °F -  
Max Temperature 49 °F 57 °F 73 °F (2000)
Min Temperature 18 °F 26 °F 15 °F (2008)
Degree Days  
Heating Degree Days 32    
Moisture  
Dew Point 12 °F    
Average Humidity 44    
Maximum Humidity 87    
Minimum Humidity 23    
Precipitation  
Precipitation 0.00 in - - ()
Sea Level Pressure  
Sea Level Pressure 30.35 in    
Wind  
Wind Speed 8 mph (SW)    
Max Wind Speed 20 mph    
Max Gust Speed 23 mph    
Visibility 10 miles    
Events      
Averages and records for this station are not official NWS values.
T = Trace of Precipitation, MM = Missing Value Source: NWS Daily Summary

Daily Weather History Graph

Daily Weather History Graph

Search for Another Location

Airport or City:

Trip Planner

Search our weather history database for the weather conditions in past years. The results will help you decide how hot, cold, wet, or windy it might be!

Date:

Astronomy

Jan. 16, 2013 Rise Set
Actual Time 7:51 AM CST 6:17 PM CST
Civil Twilight 7:26 AM CST 6:43 PM CST
Nautical Twilight 6:56 AM CST 7:12 PM CST
Astronomical Twilight 6:27 AM CST 7:41 PM CST
Moon 10:55 AM CST (1/16) 11:42 PM CST (1/16)
Length of Visible Light 11h 17m
Length of Day
10h 25m
Waxing Crescent, 28% of the Moon is Illuminated
Jan 16
Waxing Crescent
Jan 18
First Quarter
Jan 26
Full
Feb 3
Last Quarter
Feb 10
New

Hourly Weather History & Observations

Time (CST) Temp. Windchill Dew Point Humidity Pressure Visibility Wind Dir Wind Speed Gust Speed Precip Events Conditions
12:15 AM 19.6 °F 13.0 °F 16.3 °F 87% 30.30 in 10.0 mi SSE 4.6 mph - N/A   Clear
12:35 AM 18.7 °F 9.5 °F 14.9 °F 85% 30.30 in 10.0 mi SW 6.9 mph - N/A   Clear
12:55 AM 18.7 °F 13.5 °F 12.7 °F 78% 30.30 in 10.0 mi South 3.5 mph - N/A   Clear
1:15 AM 19.9 °F 12.1 °F 11.7 °F 70% 30.30 in 10.0 mi WSW 5.8 mph - N/A   Clear
1:35 AM 21.2 °F 12.6 °F 8.8 °F 59% 30.31 in 10.0 mi WSW 6.9 mph - N/A   Clear
1:55 AM 21.4 °F 12.8 °F 8.2 °F 57% 30.31 in 10.0 mi WSW 6.9 mph - N/A   Clear
2:15 AM 22.6 °F 14.3 °F 6.8 °F 51% 30.31 in 10.0 mi SW 6.9 mph - N/A   Clear
2:35 AM 21.7 °F 12.3 °F 7.3 °F 54% 30.32 in 10.0 mi SW 8.1 mph - N/A   Clear
2:55 AM 21.2 °F 11.7 °F 7.5 °F 56% 30.32 in 10.0 mi SW 8.1 mph - N/A   Clear
3:15 AM 20.8 °F 14.4 °F 7.3 °F 56% 30.32 in 10.0 mi South 4.6 mph - N/A   Clear
3:35 AM 19.8 °F 10.8 °F 8.1 °F 61% 30.32 in 10.0 mi SSW 6.9 mph - N/A   Clear
3:55 AM 18.9 °F 7.2 °F 8.2 °F 63% 30.32 in 10.0 mi SW 10.4 mph - N/A   Clear
4:15 AM 19.8 °F 9.1 °F 7.9 °F 60% 30.32 in 10.0 mi South 9.2 mph - N/A   Clear
4:35 AM 21.2 °F 10.1 °F 7.3 °F 55% - 10.0 mi SSW 10.4 mph - N/A   Clear
4:55 AM 21.0 °F 9.9 °F 6.8 °F 54% 30.31 in 10.0 mi SSW 10.4 mph - N/A   Clear
5:15 AM 20.8 °F 7.9 °F 6.8 °F 55% 30.30 in 10.0 mi South 13.8 mph - N/A   Clear
6:35 AM 23.2 °F 12.6 °F 5.0 °F 46% 30.31 in 10.0 mi South 10.4 mph - N/A   Clear
6:55 AM 21.9 °F 11.7 °F 5.4 °F 49% 30.31 in 10.0 mi South 9.2 mph - N/A   Clear
7:15 AM 22.8 °F 12.2 °F 4.1 °F 45% 30.32 in 10.0 mi SSW 10.4 mph - N/A   Clear
7:35 AM 24.4 °F 13.5 °F 3.0 °F 40% 30.32 in 10.0 mi SSW 11.5 mph - N/A   Clear
7:55 AM 25.3 °F 16.0 °F 2.7 °F 38% 30.32 in 10.0 mi SSW 9.2 mph - N/A   Clear
8:15 AM 26.4 °F 18.9 °F 2.8 °F 36% 30.34 in 10.0 mi SW 6.9 mph - N/A   Clear
8:35 AM 27.1 °F 17.5 °F 4.5 °F 38% 30.34 in 10.0 mi SW 10.4 mph - N/A   Clear
8:55 AM 29.3 °F 19.1 °F 5.4 °F 36% 30.35 in 10.0 mi SW 12.7 mph - N/A   Clear
9:15 AM 31.5 °F 22.9 °F 5.2 °F 33% 30.36 in 10.0 mi SW 10.4 mph - N/A   Clear
9:35 AM 33.4 °F 25.9 °F 5.7 °F 31% 30.37 in 10.0 mi SW 9.2 mph - N/A   Clear
9:55 AM 34.9 °F 26.6 °F 5.9 °F 30% 30.38 in 10.0 mi SW 11.5 mph - N/A   Clear
10:15 AM 36.3 °F 27.5 °F 6.1 °F 28% 30.39 in 10.0 mi SW 13.8 mph - N/A   Clear
10:35 AM 36.9 °F 28.2 °F 6.1 °F 28% 30.39 in 10.0 mi SSW 13.8 mph - N/A   Clear
10:55 AM 37.6 °F 28.1 °F 6.4 °F 27% 30.39 in 10.0 mi SW 17.3 mph - N/A   Clear
11:15 AM 37.9 °F 27.9 °F 5.5 °F 26% 30.38 in 10.0 mi SSW 19.6 mph - N/A   Clear
11:35 AM 39.2 °F 30.8 °F 5.9 °F 25% 30.38 in 10.0 mi SSW 15.0 mph 20.7 mph N/A   Clear
11:55 AM 40.6 °F 33.4 °F 7.0 °F 25% 30.36 in 10.0 mi SW 12.7 mph - N/A   Clear
12:15 PM 42.4 °F 36.5 °F 7.9 °F 24% 30.35 in 10.0 mi SSW 10.4 mph - N/A   Clear
12:35 PM 43.9 °F 36.8 °F 8.4 °F 23% 30.35 in 10.0 mi SSW 15.0 mph 20.7 mph N/A   Clear
12:55 PM 45.0 °F 38.9 °F 9.1 °F 23% 30.34 in 10.0 mi SSW 12.7 mph - N/A   Clear
1:15 PM 45.7 °F 39.8 °F 9.7 °F 23% 30.33 in 10.0 mi SW 12.7 mph - N/A   Clear
1:35 PM 46.2 °F 44.1 °F 10.2 °F 23% 30.32 in 10.0 mi West 4.6 mph - N/A   Clear
1:55 PM 48.2 °F - 14.7 °F 26% 30.32 in 10.0 mi WNW 17.3 mph 23.0 mph N/A   Clear
2:15 PM 48.7 °F - 16.0 °F 27% 30.32 in 10.0 mi WNW 12.7 mph 20.7 mph N/A   Clear
2:35 PM 48.9 °F - 16.5 °F 28% 30.32 in 10.0 mi NNW 11.5 mph - N/A   Clear
2:55 PM 49.1 °F - 17.6 °F 29% 30.31 in 10.0 mi NW 10.4 mph - N/A   Clear
3:15 PM 48.7 °F - 16.9 °F 28% 30.31 in 10.0 mi West 3.5 mph - N/A   Clear
3:35 PM 48.9 °F - 17.2 °F 28% 30.31 in 10.0 mi NNW 5.8 mph - N/A   Clear
3:55 PM 49.1 °F - 18.0 °F 29% 30.31 in 10.0 mi NNW 4.6 mph - N/A   Clear
4:15 PM 48.9 °F - 17.4 °F 29% 30.31 in 10.0 mi WSW 5.8 mph - N/A   Clear
4:35 PM 48.9 °F - 17.1 °F 28% 30.31 in 10.0 mi Calm Calm - N/A   Clear
4:55 PM 49.1 °F - 17.4 °F 28% 30.32 in 10.0 mi NW 3.5 mph - N/A   Clear
5:15 PM 48.9 °F - 17.6 °F 29% 30.33 in 10.0 mi North 8.1 mph - N/A   Clear
5:35 PM 48.4 °F - 18.1 °F 30% 30.34 in 10.0 mi NNW 4.6 mph - N/A   Clear
5:55 PM 46.9 °F - 18.7 °F 33% 30.34 in 10.0 mi North 5.8 mph - N/A   Clear
6:15 PM 43.7 °F 39.1 °F 19.6 °F 38% 30.35 in 10.0 mi NNW 8.1 mph - N/A   Clear
6:35 PM 40.8 °F 37.8 °F 19.4 °F 42% 30.36 in 10.0 mi NNW 4.6 mph - N/A   Clear
6:55 PM 38.5 °F 34.1 °F 19.4 °F 46% 30.37 in 10.0 mi South 5.8 mph - N/A   Clear
7:15 PM 36.7 °F - 19.2 °F 49% 30.38 in 10.0 mi Calm Calm - N/A   Clear
7:35 PM 36.3 °F 30.8 °F 18.1 °F 48% 30.38 in 10.0 mi South 6.9 mph - N/A   Clear
7:55 PM 34.0 °F 28.8 °F 18.3 °F 53% 30.39 in 10.0 mi SW 5.8 mph - N/A   Clear
8:15 PM 33.1 °F 26.1 °F 17.4 °F 53% 30.39 in 10.0 mi South 8.1 mph - N/A   Clear
8:35 PM 32.7 °F 26.4 °F 17.1 °F 53% 30.39 in 10.0 mi South 6.9 mph - N/A   Clear
8:55 PM 32.9 °F 25.9 °F 16.0 °F 50% 30.40 in 10.0 mi South 8.1 mph - N/A   Clear
9:15 PM 31.8 °F 24.6 °F 16.7 °F 54% 30.41 in 10.0 mi South 8.1 mph - N/A   Clear
9:35 PM 31.8 °F 25.4 °F 16.9 °F 54% 30.41 in 10.0 mi South 6.9 mph - N/A   Clear
9:55 PM 31.5 °F 26.8 °F 16.3 °F 54% 30.41 in 10.0 mi South 4.6 mph - N/A   Clear
10:15 PM 29.5 °F 23.4 °F 16.7 °F 59% 30.41 in 10.0 mi SSW 5.8 mph - N/A   Clear
10:35 PM 28.4 °F 20.4 °F 17.1 °F 63% 30.42 in 10.0 mi South 8.1 mph - N/A   Clear
10:55 PM 28.2 °F 22.0 °F 17.6 °F 64% 30.43 in 10.0 mi SSW 5.8 mph - N/A   Clear
11:15 PM 28.4 °F 20.4 °F 18.0 °F 65% 30.43 in 10.0 mi SSW 8.1 mph - N/A   Clear
11:35 PM 27.9 °F 24.0 °F 18.1 °F 67% 30.43 in 10.0 mi SSW 3.5 mph - N/A   Clear
11:55 PM 28.6 °F 23.5 °F 18.0 °F 64% 30.43 in 10.0 mi South 4.6 mph - N/A   Clear